Back to catalog

SL-3 R/B

AlivePO
NORAD 11963·ROCKET BODY·🇷🇺 Russia

Launched Sep 9, 1980 from Plesetsk Cosmodrome

Loading…

Next Passes (next 24 hours)

TLE

FreshSource: Space-Track

Epoch: Sep 14, 2026, 12:29 UTC

1 11963U 80073B   26257.52020702  .00000065  00000-0  29073-4 0  9994
2 11963  81.2729  91.0077 0074018 237.2254 122.1771 14.10185738366004

Track SL-3 R/B in real time with AllMySat

Download on the App Store